Regional Weather Roundup
Issued by NWS Grand Forks, ND

Home | Current Version | Previous Version | Graphics & Text | Print | Product List | Glossary On
Versions: 1 2 3 4 5 6 7 8 9 10 11 12 13 14 15 16 17 18 19 20 21 22 23 24 25 26 27 28 29 30 31 32 33 34 35 36 37 38 39 40 41 42 43 44 45 46 47 48 49 50
000
ASUS43 KFGF 300810
RWRFGF
PRAIRIE TO PINES  WEATHER ROUNDUP
NATIONAL WEATHER SERVICE EASTERN NORTH DAKOTA/GRAND FORKS ND
300 AM CDT SAT APR 30 2016

 **SATELLITE DATA USED TO AUGMENT SKY COVER AT AUTOMATED STATIONS**
 *****  WEATHER ACROSS EASTERN NORTH DAKOTA  *****

CITY           SKY/WX    TMP DP  RH WIND       PRES   REMARKS
GRAND FORKS    CLEAR     40  31  70 E8        30.20R
GRAND FRKS AFB CLEAR     40  31  69 E6        30.20R
DEVILS LAKE    CLEAR     38  30  73 NE8       30.20S
FARGO          CLEAR     46  33  60 E12       30.16R
WAHPETON ARPT  SUNNY     45  32  61 E8        30.15R
$$

 ***** WEATHER ACROSS CENTRAL AND WESTERN NORTH DAKOTA  *****

CITY           SKY/WX    TMP DP  RH WIND       PRES   REMARKS
BISMARCK       CLEAR     40  33  76 NE9       30.13F
MINOT          CLEAR     41  28  60 NE8       30.19S
JAMESTOWN      CLEAR     42  32  67 NE12      30.12S
MINOT AFB      CLEAR     42  29  58 E10       30.19R
GARRISON         N/A     45  28  51 E14       30.16S
WILLISTON      CLEAR     37  28  70 NW5       30.17R
DICKINSON      CLOUDY    35  29  78 NE8       30.11R
HETTINGER      PTCLDY    37  32  82 CALM      30.09F
$$

 *****  OTHER AIRPORT OBSERVATIONS IN OUR AREA  *****

CITY           SKY/WX    TMP DP  RH WIND       PRES   REMARKS
WALHALLA       FAIR      36  28  75 NW7       30.25S
GRAFTON AIRPOR FAIR      39  32  75 NE7       30.24R
VALLEY CITY AR FAIR      43  32  65 NE10      30.15S
CANDO          FAIR      39  27  60 NE10      30.24R
CAVALIER APRT  FAIR      39  32  75 NW5       30.24S
GWINNER        FAIR      41  37  87 CALM      30.12R
SHEYENNE NWR     N/A     41  33  72 NE5       29.95S
ROLLA          FAIR      34  25  69 NE7       30.24S
 ***** THE ABOVE OBSERVATIONS ARE NON NWS ARE NOT QUALITY
       CONTROLLED AND MAY MIS-REPORT RAIN FOR SNOW...
$$

  *****  WEATHER ACROSS NORTHERN MINNESOTA  *****

CITY           SKY/WX    TMP DP  RH WIND       PRES   REMARKS
FLAG ISLAND    PTCLDY    43  30  61 E5        30.27R
WARROAD        PTCLDY    36  32  87 NE3       30.27R
ROSEAU         PTCLDY    36  30  80 E6        30.26R
HALLOCK        CLEAR     41  30  65 NE8       30.23R
THF RVR FALLS  CLEAR     41  30  65 E10       30.23R
BAUDETTE       CLEAR     36  29  75 E5        30.26R
WASKISH        CLEAR     37  32  81 E3        30.25R
CROOKSTON      CLEAR     43  32  65 E8        30.21R
STEPHEN NDAWN    N/A     36  28  75 E6          N/A
GREENBUSH NDAW   N/A     37  32  81 E3          N/A
$$
  *****  WEATHER ACROSS CENTRAL AND WEST MINNESOTA  *****

CITY           SKY/WX    TMP DP  RH WIND       PRES   REMARKS
FOSSTON        CLEAR     39  30  70 E7        30.21R
BEMIDJI        CLEAR     38  32  79 E6        30.21S
PARK RAPIDS    CLEAR     43  29  57 E3        30.19R
ELBOW LAKE     FAIR      44  34  67 SE13      30.15R
WADENA         CLEAR     39  30  70 E6        30.19R
DETROIT LAKES  CLEAR     45  32  61 E9        30.19R
MOORHEAD       CLEAR     46  34  61 E8        30.17R
FERGUS FALLS   CLEAR     45  34  65 E7        30.14R
MORRIS MN      CLEAR     45  36  70 E13       30.11F
STAPLES        PTCLDY    39  28  65 E3        30.19R
$$
  *****  WEATHER ELSEWHERE ACROSS MINNESOTA  *****

CITY           SKY/WX    TMP DP  RH WIND       PRES   REMARKS
DULUTH         CLEAR     36  28  73 E10       30.21S
INTRNTL FALLS  CLEAR     31  27  85 E3        30.26S
ELY            PTCLDY    36  30  80 CALM      30.24S
CLOQUET        CLEAR     36  28  75 E3        30.21R
WHEATON        CLEAR     43  36  75 E9        30.14S
BRAINERD       CLEAR     38  29  70 NE5       30.20R
HIBBING        CLEAR     36  29  75 NE5       30.23R
ALEXANDRIA     CLEAR     42  32  67 E12       30.16R
SAINT CLOUD    CLEAR     41  31  67 NE7       30.14F
MINNEAPOLIS    CLOUDY    46  32  58 NE10      30.10F
$$

  *****  WEATHER ACROSS SOUTH DAKOTA  *****

CITY           SKY/WX    TMP DP  RH WIND       PRES   REMARKS
SIOUX FALLS    CLOUDY    43  39  86 NE12      29.98F
BROOKINGS      PTCLDY    37  35  92 NE8       30.02F
WATERTOWN      CLOUDY    36  33  89 N5        30.05F
HURON          PTCLDY    42  39  89 NE9       30.01F
SISSETON         N/A     36  34  92 CALM      30.10S
ABERDEEN       PTCLDY    39  35  86 E5        30.09S
MITCHELL       PTCLDY    44  41  89 NE10      29.99F
PIERRE         CLOUDY    41  38  89 NE12      30.02S
MOBRIDGE       CLOUDY    42  39  89 NE7       30.05F
RAPID CITY     CLOUDY    40  37  89 N8        30.03F
$$

  *****  SOME WEATHER IN NEARBY STATES *****

CITY           SKY/WX    TMP DP  RH WIND       PRES   REMARKS
GLASGOW MT     CLOUDY    45  36  70 NE9       30.13R
GREAT FALLS MT CLOUDY    41  34  76 E6        30.03R
CHEYENNE WY    LGT SNOW  30  28  92 N10       29.87F FOG     WCI  21
SCOTTSBLUFF NE LGT SNOW  33  31  92 N6        29.93S FOG
OMAHA NE       RAIN      46  43  89 NE18G30   29.81F FOG
DES MOINES IA  DRIZZLE   47  40  76 E14       29.91F
DAVENPORT IA   MOCLDY    46  41  82 E16       29.99F
CHICAGO IL     CLOUDY    43  38  82 NE8       30.07S
EAU CLAIRE WI  CLOUDY    38  32  79 NE6       30.10F
LA CROSSE WI   CLOUDY    42  38  85 E5        30.10F
$$

  *****  SOME NATIONAL WEATHER *****

CITY           SKY/WX    TMP DP  RH WIND       PRES   REMARKS
LA GUARDIA NY  CLOUDY    48  39  71 NE10      30.16R
RALEIGH NC     CLOUDY    60  57  89 E7        30.07R
ATLANTA GA     CLOUDY    71  54  54 E3        29.92R
NEW ORLEANS LA CLOUDY    76  71  85 SE10      29.80S
OKLAHOMA CITY  CLOUDY    52  51  97 NW15      29.72R
ALBUQUERQUE NM CLOUDY    47  35  63 W10G25    29.90R
SALT LAKE CITY MOCLDY    48  40  73 SW7       29.86S
LOS ANGELES CA PTCLDY    55  50  83 SE6       29.88F
BOISE ID       CLEAR     45  37  73 NW17      29.96R
SEATTLE WA     MOCLDY    51  44  77 NE6       30.26R
$$

*** WEATHER ACROSS MANITOBA...SASKATCHEWAN AND ONTARIO ***
                ***ONTARIO***

CITY           SKY/WX    TMP DP  RH WIND       PRES   REMARKS
GERALDTON      CLOUDY    34  32  93 NE8       30.29S
THUNDER BAY      N/A     41  32  70 N2        30.29R
SIOUX LOOKOUT  CLEAR     32  25  74 E3        30.30R
TORONTO        CLEAR     37  25  60 N6        30.16F
BIG TROUT LK   CLOUDY    30  27  86 N2        30.38S
PICKLE LAKE    NOT AVBL
DRYDEN         CLEAR     34  30  86 NE3       30.29S
KENORA         CLEAR     37  28  70 E7        30.28R
$$
                *** MANITOBA***

CITY           SKY/WX    TMP DP  RH WIND       PRES   REMARKS
BRANDON        CLEAR     37  25  60 NE10      30.27S
DAUPHIN        CLEAR     32  27  80 CALM      30.32R
ISLAND LAKE    NOT AVBL
PILOT MOUND    NOT AVBL
THE PAS        CLEAR     37  28  70 SE8       30.32
THOMPSON       MOCLDY    43  25  49 CALM      30.31R
WINNIPEG       CLEAR     34  27  75 NE8       30.28R
LYNN LAKE      MOCLDY    41  27  56 SW7       30.27R
CHURCHILL      CLEAR     19  19 100 SE7       30.47S WCI  10
$$
                ***SASKATCHEWAN***

CITY           SKY/WX    TMP DP  RH WIND       PRES   REMARKS
ESTEVAN        CLEAR     37  25  60 E9        30.22R
KINDERSLEY     CLEAR     43  27  52 SE9       30.15R
LLOYDMINSTER   CLOUDY    45  23  42 SE3       30.14R
PRINCE ALBERT  CLEAR     32  25  74 E3        30.24R
REGINA         CLEAR     43  21  42 E13G20    30.24R
YORKTON        CLEAR     39  27  60 SE9       30.29R
N. BATTLEFORD  CLEAR     43  23  45 SE14      30.20R
LA RONGE       CLEAR     39  27  60 S2        30.24R
SASKATOON      CLEAR     43  27  52 SE10      30.23R
SWIFT CURRENT  CLOUDY    39  28  65 S9        30.15R
$$
NOTE: THESE ARE AUTOMATED STATIONS WITH LIMITED QUALITY CONTROL
      "FAIR" INDICATES FEW OR NO CLOUDS BELOW 12,000 FEET WITH NO
      SIGNIFICANT WEATHER AND/OR OBSTRUCTIONS TO VISIBILITY.
      SKY/WX - SKY CONDITION AND SIGNIFICANT WEATHER.
      TMP - AIR TEMPERATURE.    DP   - DEWPOINT TEMPERATURE.
      RH  - RELATIVE HUMIDITY.  PRES - PRESSURE.
      HX  - HEAT INDEX.         WCI  - WIND CHILL INDEX.
$




USA.gov is the U.S. government's official web portal to all federal, state and local government web resources and services.